Terminal Aerodrome Forecast
Issued by NWS

Home | Current Version | Previous Version | Text Only | Print | Product List | Glossary On
Versions: 1 2 3 4 5 6 7 8 9 10 11 12 13 14 15 16 17 18 19 20 21 22 23 24 25 26 27 28 29 30 31 32 33
000
FTUS43 KDLH 250057 AAA
TAFBRD
TAF AMD
KBRD 250057Z 2501/2524 13005KT P6SM SCT070 BKN120
      TEMPO 2501/2502 1/2SM +TSRA BKN030CB OVC050
     FM250500 08005KT P6SM SCT080
     FM251500 10009KT P6SM SCT120
     FM251700 11010G18KT P6SM VCSH BKN060
     FM251900 11012G18KT 5SM -SHRA BR SCT025 BKN040=

USA.gov is the U.S. government's official web portal to all federal, state and local government web resources and services.